18 Nov
2007
18 Nov
'07
7:30 a.m.
ISS 1 25544U 98067A 07322.39853913 .00021536 00000-0 13729-3 0 3698 2 25544 051.6409 028.8063 0001860 173.1576 291.0603 15.76347226515105In Memory of Art
6243
Age (days ago)
6243
Last active (days ago)
0 comments
1 participants
participants (1)
-
Dave Larsen PhD